COSMOS 2221

Last updated on Thu Oct 30 2025 00:02:15 GMT+0000 (Coordinated Universal Time)

1 22236U 92080A 25302.52797565 .00002780 00000+0 24855-3 0 9995 2 22236 82.5061 44.6244 0013169 273.1934 86.7780 14.95492486761183
UTC large
Height (km)
Speed (km/s)
/
Latitude / Longitude
Inclination (degrees)
Orbital Period (minutes)
Azimuth
Elevation
Range (km)
Doppler Factor

Next 0 passes for location: London (51.5072 / 0.1276)

Sorry there are no passes over London.